Notices

What's New in latest Release from April 7th, 2021:

- Updated Glossary, including Speed of Maximum Gust, and Total Hourly Precipitation

- Updated national and regional climate services offices contacts and prices information

- Addition of station inventory lists for 1981-2010, 1971-2000, and 1961-1990 Normals.

If you haven't already, please take our survey and provide feedback about our website: https://eccc.sondage-survey.ca/f/LanguageSelection.aspx?s=442ca660-fcf1-47c0-95a9-59707d6fd709

Hourly Data Report for December 01, 2019

QUALICUM BEACH AIRPORT
BRITISH COLUMBIA
Current Station Operator: ECCC - MSC

49°20'14.000" N
124°23'38.000" W
58.20 m
1026562
71766
VOQ

Download Data

Hourly Data (December 2019)
Hourly Data Report for December 1, 2019
TIME
LST
Temp Definition
°C
Dew Point Definition
°C
Rel Hum Definition
%
Precip. Amount Definition
mm

Wind Dir Definition
10's deg

Wind Spd Definition
km/h
Visibility Definition
km
Stn Press Definition
kPa
Hmdx Definition


Wind Chill Definition


Weather Definition


00:00 -3.3 -3.7 97 LegendMM 25 5   100.83   -5 LegendNANA
01:00 -2.7 -3.3 96 LegendMM 25 6   100.80   -5 LegendNANA
02:00 -3.5 -3.9 97 LegendMM 23 4   100.77   -5 LegendNANA
03:00 -3.8 -4.3 97 LegendMM 18 2   100.74   -5 LegendNANA
04:00 -3.5 -3.8 98 LegendMM 24 3   100.71   -5 LegendNANA
05:00 -3.6 -3.8 98 LegendMM 25 2   100.69   -4 LegendNANA
06:00 -2.9 -3.2 98 LegendMM 27 1   100.68   -3 LegendNANA
07:00 -2.7 -3.1 98 LegendMM 27 2   100.68   -3 LegendNANA
08:00 -2.4 -2.8 97 LegendMM 24 1   100.69   -3 LegendNANA
09:00 -2.2 -2.6 97 LegendMM 0 1   100.76   -3 LegendNANA
10:00 -0.6 -1.0 97 LegendMM 17 3   100.80   -2 LegendNANA
11:00 2.0 -0.3 85 LegendMM 11 6   100.81     LegendNANA
12:00 2.6 -0.2 82 LegendMM 14 10   100.78     LegendNANA
13:00 3.1 0.2 81 LegendMM 14 10   100.74     LegendNANA
14:00 3.1 0.4 82 LegendMM 12 8   100.76     LegendNANA
15:00 2.7 0.6 86 LegendMM 13 8   100.81     LegendNANA
16:00 1.8 0.7 93 LegendMM 15 4   100.84     LegendNANA
17:00 1.3 0.8 96 LegendMM 0 1   100.95     LegendNANA
18:00 1.0 0.7 98 LegendMM   0   100.97     LegendNANA
19:00 0.6 0.4 98 LegendMM 28 2   100.96     LegendNANA
20:00 0.2 0.0 99 LegendMM 25 2   100.99     LegendNANA
21:00 0.3 0.1 99 LegendMM 26 2   101.04     LegendNANA
22:00 0.4 0.2 99 LegendMM 25 4   101.07     LegendNANA
23:00 0.6 0.4 99 LegendMM 30 2   101.12     LegendNANA

Notes on Data Quality.

Legend

  • E = Estimated
  • M = Missing
  • NA = Not Available*
  • [empty] = Indicates an unobserved value
Date modified: